Location: Newark
(12.4436°N, 0.6167°W)
Time: 20:18:19
(UTC+00:00)

deb Explorer IX - Pass Details

Date: 09 December 2019
Orbit: 548 x 1101 km, 38.8° (Epoch: 18 January)

Event Time Altitude Azimuth Distance (km) Brightness Sun altitude
Rises 02:01:04 0° 281° (W) 3,837 - -58.2°
Reaches altitude 10° 02:05:03 10° 261° (W) 2,808 - -57.3°
Maximum altitude 02:08:59 16° 226° (SW) 2,298 - -56.4°
Drops below altitude 10° 02:12:41 10° 190° (S) 2,602 - -55.6°
Sets 02:16:12 0° 168° (SSE) 3,424 - -54.8°
